Weather History for Courtland, AL

Change the Weather History Date:

Friday, February 15, 2013

  Actual Average (KMSL) Record (KMSL)
Temperature  
Mean Temperature 43 °F 45 °F  
Max Temperature 53 °F 55 °F 78 °F (1989)
Min Temperature 33 °F 35 °F 4 °F (1905)
Degree Days  
Heating Degree Days 22 20  
Month to date heating degree days 321  
Since 1 July heating degree days 2301  
Cooling Degree Days 0 0  
Month to date cooling degree days 0  
Year to date cooling degree days 0  
Moisture  
Dew Point 33 °F    
Average Humidity 68    
Maximum Humidity 100    
Minimum Humidity 47    
Precipitation  
Precipitation 0.00 in 0.17 in 3.02 in (1939)
Month to date precipitation 2.46  
Year to date precipitation 7.07  
Snow  
Snow 0.00 in - - ()
Month to date snowfall  
Since 1 July snowfall  
Snow Depth -    
Sea Level Pressure  
Sea Level Pressure 30.12 in    
Wind  
Wind Speed 6 mph (NW)    
Max Wind Speed 16 mph    
Max Gust Speed 20 mph    
Visibility 10 miles    
Events      
T = Trace of Precipitation, MM = Missing Value Source: NWS Daily Summary

Daily Weather History Graph

Daily Weather History Graph

Search for Another Location

Airport:

Trip Planner

Search our weather history database for the weather conditions in past years. The results will help you decide how hot, cold, wet, or windy it might be!

Date:

Astronomy

Feb. 15, 2013 Rise Set
Actual Time 6:34 AM CST 5:32 PM CST
Civil Twilight 6:08 AM CST 5:58 PM CST
Nautical Twilight 5:39 AM CST 6:28 PM CST
Astronomical Twilight 5:10 AM CST 6:57 PM CST
Moon 9:26 AM CST (2/15) 11:16 PM CST (2/15)
Length of Visible Light 11h 49m
Length of Day
10h 58m
Waxing Crescent, 30% of the Moon is Illuminated
Feb 15
Waxing Crescent
Feb 17
First Quarter
Feb 25
Full
Mar 4
Last Quarter
Mar 11
New

Hourly Weather History & Observations

Time (CST) Temp. Windchill Dew Point Humidity Pressure Visibility Wind Dir Wind Speed Gust Speed Precip Events Conditions
12:15 AM 41.0 °F 39.0 °F 33.8 °F 76% 30.08 in 10.0 mi SSW 3.5 mph - N/A   Clear
12:35 AM 41.0 °F 38.0 °F 33.8 °F 76% 30.08 in 10.0 mi SSW 4.6 mph - N/A   Clear
12:55 AM 41.0 °F 38.0 °F 33.8 °F 76% 30.09 in 10.0 mi SSW 4.6 mph - N/A   Clear
1:15 AM 41.0 °F 37.1 °F 33.8 °F 76% 30.08 in 10.0 mi SSW 5.8 mph - N/A   Clear
1:35 AM 35.6 °F 30.7 °F 32.0 °F 87% 30.08 in 10.0 mi SSW 5.8 mph - N/A   Clear
1:55 AM 35.6 °F - 33.8 °F 93% 30.08 in 10.0 mi Calm Calm - N/A   Clear
2:15 AM 37.4 °F 34.9 °F 32.0 °F 81% 30.08 in 10.0 mi SSW 3.5 mph - N/A   Clear
2:35 AM 35.6 °F 32.8 °F 32.0 °F 87% 30.07 in 10.0 mi SSW 3.5 mph - N/A   Clear
2:55 AM 35.6 °F 30.7 °F 33.8 °F 93% 30.07 in 10.0 mi SSW 5.8 mph - N/A   Clear
3:15 AM 35.6 °F - 33.8 °F 93% 30.08 in 10.0 mi Calm Calm - N/A   Clear
3:35 AM 33.8 °F - 33.8 °F 100% 30.08 in 10.0 mi Calm Calm - N/A   Clear
3:55 AM 33.8 °F - 32.0 °F 93% 30.08 in 10.0 mi Calm Calm - N/A   Clear
4:15 AM 33.8 °F - 32.0 °F 93% 30.08 in 10.0 mi Calm Calm - N/A   Clear
4:35 AM 33.8 °F 27.7 °F 33.8 °F 100% 30.09 in 10.0 mi SSW 6.9 mph - N/A   Clear
4:55 AM 35.6 °F 29.9 °F 33.8 °F 93% 30.10 in 10.0 mi SSW 6.9 mph - N/A   Clear
5:15 AM 35.6 °F 31.7 °F 35.6 °F 100% 30.10 in 10.0 mi SSW 4.6 mph - N/A   Clear
5:35 AM 35.6 °F 30.7 °F 35.6 °F 100% 30.10 in 10.0 mi SSW 5.8 mph - N/A   Clear
5:55 AM 35.6 °F 31.7 °F 33.8 °F 93% 30.10 in 10.0 mi SW 4.6 mph - N/A   Clear
6:15 AM 35.6 °F 30.7 °F 35.6 °F 100% 30.10 in 10.0 mi SSW 5.8 mph - N/A   Clear
6:35 AM 35.6 °F 31.7 °F 33.8 °F 93% 30.11 in 10.0 mi SW 4.6 mph - N/A   Clear
6:55 AM 37.4 °F 32.8 °F 35.6 °F 93% 30.11 in 10.0 mi SSW 5.8 mph - N/A   Clear
7:15 AM 37.4 °F 32.8 °F 35.6 °F 93% 30.11 in 10.0 mi SSW 5.8 mph - N/A   Clear
7:35 AM 39.2 °F - 37.4 °F 93% 30.12 in 10.0 mi Calm Calm - N/A   Clear
7:55 AM 42.8 °F 40.1 °F 37.4 °F 81% 30.13 in 10.0 mi WSW 4.6 mph - N/A   Clear
8:15 AM 44.6 °F 40.7 °F 37.4 °F 76% 30.14 in 10.0 mi WNW 6.9 mph - N/A   Clear
8:35 AM 44.6 °F 40.7 °F 37.4 °F 76% 30.15 in 10.0 mi WNW 6.9 mph - N/A   Clear
8:55 AM 46.4 °F 42.9 °F 37.4 °F 71% 30.15 in 10.0 mi WNW 6.9 mph - N/A   Scattered Clouds
9:15 AM 46.4 °F 42.9 °F 37.4 °F 71% 30.15 in 10.0 mi NW 6.9 mph - N/A   Scattered Clouds
9:35 AM 46.4 °F 42.4 °F 37.4 °F 71% 30.15 in 10.0 mi NW 8.1 mph - N/A   Scattered Clouds
9:55 AM 50.0 °F - 39.2 °F 66% 30.16 in 10.0 mi North 4.6 mph - N/A   Scattered Clouds
10:15 AM 50.0 °F - 37.4 °F 62% 30.16 in 10.0 mi North 4.6 mph - N/A   Scattered Clouds
10:35 AM 51.8 °F - 37.4 °F 58% 30.16 in 10.0 mi North 8.1 mph - N/A   Scattered Clouds
11:15 AM 53.6 °F - 35.6 °F 51% 30.15 in 10.0 mi NNW 13.8 mph - N/A   Mostly Cloudy
11:35 AM 53.6 °F - 33.8 °F 47% 30.14 in 10.0 mi North 9.2 mph - N/A   Overcast
11:55 AM 53.6 °F - 33.8 °F 47% 30.13 in 10.0 mi NNW 5.8 mph 10.4 mph N/A   Mostly Cloudy
12:15 PM 53.6 °F - 33.8 °F 47% 30.13 in 10.0 mi North 10.4 mph - N/A   Scattered Clouds
12:35 PM 53.6 °F - 33.8 °F 47% 30.12 in 10.0 mi North 11.5 mph 19.6 mph N/A   Scattered Clouds
12:55 PM 53.6 °F - 33.8 °F 47% 30.11 in 10.0 mi North 12.7 mph - N/A   Mostly Cloudy
1:15 PM 53.6 °F - 33.8 °F 47% 30.11 in 10.0 mi NNW 12.7 mph - N/A   Overcast
1:35 PM 51.8 °F - 33.8 °F 50% 30.10 in 10.0 mi NW 13.8 mph - N/A   Overcast
1:55 PM 51.8 °F - 32.0 °F 47% 30.10 in 10.0 mi North 11.5 mph - N/A   Overcast
2:15 PM 51.8 °F - 32.0 °F 47% 30.10 in 10.0 mi NW 9.2 mph - N/A   Overcast
2:35 PM 51.8 °F - 32.0 °F 47% 30.10 in 10.0 mi NW 10.4 mph - N/A   Mostly Cloudy
2:55 PM 51.8 °F - 32.0 °F 47% 30.10 in 10.0 mi NW 6.9 mph - N/A   Overcast
3:15 PM 50.0 °F - 32.0 °F 50% 30.11 in 10.0 mi NNW 9.2 mph - N/A   Overcast
3:35 PM 50.0 °F - 32.0 °F 50% 30.11 in 10.0 mi North 11.5 mph - N/A   Overcast
3:55 PM 50.0 °F - 32.0 °F 50% 30.11 in 10.0 mi North 6.9 mph - N/A   Overcast
4:15 PM 50.0 °F - 32.0 °F 50% 30.11 in 10.0 mi NW 10.4 mph - N/A   Overcast
4:35 PM 50.0 °F - 32.0 °F 50% 30.11 in 10.0 mi NW 6.9 mph - N/A   Overcast
4:55 PM 50.0 °F - 32.0 °F 50% 30.11 in 10.0 mi NW 10.4 mph - N/A   Overcast
5:15 PM 48.2 °F - 32.0 °F 54% 30.11 in 10.0 mi North 6.9 mph - N/A   Overcast
5:35 PM 46.4 °F 43.5 °F 33.8 °F 62% 30.11 in 10.0 mi North 5.8 mph - N/A   Mostly Cloudy
5:55 PM 46.4 °F 43.5 °F 33.8 °F 62% 30.11 in 10.0 mi North 5.8 mph - N/A   Mostly Cloudy
6:15 PM 44.6 °F 41.4 °F 33.8 °F 66% 30.12 in 10.0 mi NNW 5.8 mph - N/A   Mostly Cloudy
6:35 PM 44.6 °F 42.2 °F 33.8 °F 66% 30.11 in 10.0 mi North 4.6 mph - N/A   Scattered Clouds
6:55 PM 42.8 °F 41.1 °F 32.0 °F 66% 30.12 in 10.0 mi North 3.5 mph - N/A   Scattered Clouds
7:15 PM 42.8 °F 41.1 °F 32.0 °F 66% 30.12 in 10.0 mi North 3.5 mph - N/A   Scattered Clouds
7:35 PM 41.0 °F 37.1 °F 32.0 °F 70% 30.12 in 10.0 mi NW 5.8 mph - N/A   Scattered Clouds
7:55 PM 42.8 °F 36.6 °F 32.0 °F 66% 30.13 in 10.0 mi NNW 11.5 mph - N/A   Mostly Cloudy
8:15 PM 44.6 °F 39.7 °F 30.2 °F 57% 30.13 in 10.0 mi North 9.2 mph 18.4 mph N/A   Overcast
8:35 PM 44.6 °F 37.4 °F 28.4 °F 53% 30.14 in 10.0 mi North 16.1 mph 19.6 mph N/A   Overcast
8:55 PM 42.8 °F 35.4 °F 26.6 °F 53% 30.14 in 10.0 mi North 15.0 mph - N/A   Mostly Cloudy
9:15 PM 42.8 °F 35.8 °F 28.4 °F 57% 30.15 in 10.0 mi North 13.8 mph - N/A   Mostly Cloudy
9:35 PM 42.8 °F 37.0 °F 28.4 °F 57% 30.15 in 10.0 mi North 10.4 mph - N/A   Mostly Cloudy
9:55 PM 42.8 °F 37.0 °F 28.4 °F 57% 30.15 in 10.0 mi North 10.4 mph - N/A   Overcast
10:15 PM 42.8 °F 36.6 °F 26.6 °F 53% 30.15 in 10.0 mi North 11.5 mph - N/A   Overcast
10:35 PM 41.0 °F 33.1 °F 28.4 °F 61% 30.15 in 10.0 mi North 15.0 mph 18.4 mph N/A   Mostly Cloudy
10:55 PM 41.0 °F 34.3 °F 28.4 °F 61% 30.15 in 10.0 mi North 11.5 mph - N/A   Mostly Cloudy
11:15 PM 39.2 °F 34.2 °F 26.6 °F 61% 30.15 in 10.0 mi North 6.9 mph - N/A   Mostly Cloudy
11:35 PM 39.2 °F 33.6 °F 26.6 °F 61% 30.15 in 10.0 mi North 8.1 mph - N/A   Scattered Clouds
11:55 PM 37.4 °F 32.8 °F 26.6 °F 65% 30.15 in 10.0 mi NNE 5.8 mph - N/A   Mostly Cloudy